Time,TemperatureF,DewpointF,PressureIn,WindDirection,WindDirectionDegrees,WindSpeedMPH,WindSpeedGustMPH,Humidity,HourlyPrecipIn,Conditions,Clouds,dailyrainin,SoftwareType,DateUTC
2013-03-23 00:22:00,12.0,8.0,-100.00,NE,39,2.0,6.0,81,0.00,,,0.02,,2013-03-23 06:22:00,
2013-03-23 00:32:00,12.0,8.0,-100.00,NE,39,2.0,6.0,81,0.00,,,0.02,,2013-03-23 06:32:00,
2013-03-23 00:42:00,12.0,8.0,-100.00,NE,39,2.0,6.0,81,0.00,,,0.02,,2013-03-23 06:42:00,
2013-03-23 00:51:00,12.0,8.0,-100.00,NE,39,2.0,6.0,81,0.00,,,0.02,,2013-03-23 06:51:00,
2013-03-23 01:22:00,11.0,7.0,-100.00,NNE,30,2.0,5.0,82,0.00,,,0.02,,2013-03-23 07:22:00,
2013-03-23 01:32:00,11.0,7.0,-100.00,NNE,30,2.0,5.0,82,0.00,,,0.02,,2013-03-23 07:32:00,
2013-03-23 01:42:00,11.0,7.0,-100.00,NNE,30,2.0,5.0,82,0.00,,,0.02,,2013-03-23 07:42:00,
2013-03-23 01:52:00,11.0,7.0,-100.00,NNE,30,2.0,5.0,82,0.00,,,0.02,,2013-03-23 07:52:00,
2013-03-23 02:12:00,11.0,7.0,-100.00,NE,41,5.0,8.0,82,0.00,,,0.02,,2013-03-23 08:12:00,
2013-03-23 02:22:00,11.0,7.0,-100.00,NE,41,5.0,8.0,82,0.00,,,0.02,,2013-03-23 08:22:00,
2013-03-23 02:32:00,11.0,7.0,-100.00,NE,41,5.0,8.0,82,0.00,,,0.02,,2013-03-23 08:32:00,
2013-03-23 02:42:00,11.0,7.0,-100.00,NE,41,5.0,8.0,82,0.00,,,0.02,,2013-03-23 08:42:00,
2013-03-23 02:51:00,11.0,7.0,-100.00,NE,41,5.0,8.0,82,0.00,,,0.02,,2013-03-23 08:51:00,
2013-03-23 03:12:00,11.0,6.0,-100.00,NNE,25,6.0,8.0,81,0.00,,,0.02,,2013-03-23 09:12:00,
2013-03-23 03:22:00,11.0,6.0,-100.00,NNE,25,6.0,8.0,81,0.00,,,0.02,,2013-03-23 09:22:00,
2013-03-23 03:32:00,11.0,6.0,-100.00,NNE,25,6.0,8.0,81,0.00,,,0.02,,2013-03-23 09:32:00,
2013-03-23 03:42:00,11.0,6.0,-100.00,NNE,25,6.0,8.0,81,0.00,,,0.02,,2013-03-23 09:42:00,
2013-03-23 03:52:00,11.0,6.0,-100.00,NNE,25,6.0,8.0,81,0.00,,,0.02,,2013-03-23 09:52:00,
2013-03-23 04:12:00,10.0,5.0,-100.00,North,11,5.0,7.0,80,0.00,,,0.00,,2013-03-23 10:12:00,
2013-03-23 04:23:00,10.0,5.0,-100.00,North,11,5.0,7.0,80,0.00,,,0.00,,2013-03-23 10:23:00,
2013-03-23 04:33:00,10.0,5.0,-100.00,North,11,5.0,7.0,80,0.00,,,0.00,,2013-03-23 10:33:00,
2013-03-23 04:42:00,10.0,5.0,-100.00,North,11,5.0,7.0,80,0.00,,,0.00,,2013-03-23 10:42:00,
2013-03-23 04:52:00,10.0,5.0,-100.00,North,11,5.0,7.0,80,0.00,,,0.00,,2013-03-23 10:52:00,
2013-03-23 05:22:00,9.0,3.0,-100.00,NE,52,7.0,10.0,79,0.00,,,0.00,,2013-03-23 11:22:00,
2013-03-23 05:32:00,9.0,3.0,-100.00,NE,52,7.0,10.0,79,0.00,,,0.00,,2013-03-23 11:32:00,
2013-03-23 05:42:00,9.0,3.0,-100.00,NE,52,7.0,10.0,79,0.00,,,0.00,,2013-03-23 11:42:00,
2013-03-23 05:51:00,9.0,3.0,-100.00,NE,52,7.0,10.0,79,0.00,,,0.00,,2013-03-23 11:51:00,
2013-03-23 06:12:00,9.0,3.0,-100.00,NE,39,7.0,12.0,77,0.00,,,0.00,,2013-03-23 12:12:00,
2013-03-23 06:22:00,9.0,3.0,-100.00,NE,39,7.0,12.0,77,0.00,,,0.00,,2013-03-23 12:22:00,
2013-03-23 06:33:00,9.0,3.0,-100.00,NE,39,7.0,12.0,77,0.00,,,0.00,,2013-03-23 12:33:00,
2013-03-23 06:42:00,9.0,3.0,-100.00,NE,39,7.0,12.0,77,0.00,,,0.00,,2013-03-23 12:42:00,
2013-03-23 06:52:00,9.0,3.0,-100.00,NE,39,7.0,12.0,77,0.00,,,0.00,,2013-03-23 12:52:00,
2013-03-23 07:12:00,7.0,2.0,-100.00,ENE,57,5.0,8.0,77,0.00,,,0.00,,2013-03-23 13:12:00,
2013-03-23 07:22:00,7.0,2.0,-100.00,ENE,57,5.0,8.0,77,0.00,,,0.00,,2013-03-23 13:22:00,
2013-03-23 07:32:00,7.0,2.0,-100.00,ENE,57,5.0,8.0,77,0.00,,,0.00,,2013-03-23 13:32:00,
2013-03-23 07:42:00,7.0,2.0,-100.00,ENE,57,5.0,8.0,77,0.00,,,0.00,,2013-03-23 13:42:00,
2013-03-23 07:52:00,7.0,2.0,-100.00,ENE,57,5.0,8.0,77,0.00,,,0.00,,2013-03-23 13:52:00,
2013-03-23 08:12:00,8.0,2.0,-100.00,NE,50,7.0,13.0,76,-99.99,,,0.00,,2013-03-23 14:12:00,
2013-03-23 08:22:00,8.0,2.0,-100.00,NE,50,7.0,13.0,76,-99.99,,,0.00,,2013-03-23 14:22:00,
2013-03-23 09:22:00,7.0,2.0,-100.00,NE,47,9.0,13.0,77,-99.99,,,0.00,,2013-03-23 15:22:00,
2013-03-23 09:33:00,7.0,2.0,-100.00,NE,47,9.0,13.0,77,-99.99,,,0.00,,2013-03-23 15:33:00,
2013-03-23 09:43:00,7.0,2.0,-100.00,NE,47,9.0,13.0,77,-99.99,,,0.00,,2013-03-23 15:43:00,
2013-03-23 09:52:00,7.0,2.0,-100.00,NE,47,9.0,13.0,77,-99.99,,,0.00,,2013-03-23 15:52:00,
2013-03-23 10:12:00,13.0,3.0,-100.00,NE,35,8.0,13.0,63,0.00,,,0.00,,2013-03-23 16:12:00,
2013-03-23 10:22:00,13.0,3.0,-100.00,NE,35,8.0,13.0,63,0.00,,,0.00,,2013-03-23 16:22:00,
2013-03-23 10:32:00,13.0,3.0,-100.00,NE,35,8.0,13.0,63,0.00,,,0.00,,2013-03-23 16:32:00,
2013-03-23 10:42:00,13.0,3.0,-100.00,NE,35,8.0,13.0,63,0.00,,,0.00,,2013-03-23 16:42:00,
2013-03-23 10:52:00,13.0,3.0,-100.00,NE,35,8.0,13.0,63,0.00,,,0.00,,2013-03-23 16:52:00,
2013-03-23 11:22:00,18.0,2.0,-100.00,NE,35,9.0,17.0,48,0.00,,,0.00,,2013-03-23 17:22:00,
2013-03-23 11:32:00,18.0,2.0,-100.00,NE,35,9.0,17.0,48,0.00,,,0.00,,2013-03-23 17:32:00,
2013-03-23 11:42:00,18.0,2.0,-100.00,NE,35,9.0,17.0,48,0.00,,,0.00,,2013-03-23 17:42:00,
2013-03-23 11:52:00,18.0,2.0,-100.00,NE,35,9.0,17.0,48,0.00,,,0.00,,2013-03-23 17:52:00,
2013-03-23 12:22:00,22.0,2.0,-100.00,NNE,24,8.0,16.0,40,0.00,,,0.00,,2013-03-23 18:22:00,
2013-03-23 12:32:00,22.0,2.0,-100.00,NNE,24,8.0,16.0,40,0.00,,,0.00,,2013-03-23 18:32:00,
2013-03-23 12:42:00,22.0,2.0,-100.00,NNE,24,8.0,16.0,40,0.00,,,0.00,,2013-03-23 18:42:00,
2013-03-23 12:52:00,22.0,2.0,-100.00,NNE,24,8.0,16.0,40,0.00,,,0.00,,2013-03-23 18:52:00,
2013-03-23 13:12:00,25.0,0.0,-100.00,NE,40,7.0,12.0,33,0.00,,,0.00,,2013-03-23 19:12:00,
2013-03-23 13:22:00,25.0,0.0,-100.00,NE,40,7.0,12.0,33,0.00,,,0.00,,2013-03-23 19:22:00,
2013-03-23 13:32:00,25.0,0.0,-100.00,NE,40,7.0,12.0,33,0.00,,,0.00,,2013-03-23 19:32:00,
2013-03-23 13:42:00,25.0,0.0,-100.00,NE,40,7.0,12.0,33,0.00,,,0.00,,2013-03-23 19:42:00,
2013-03-23 13:52:00,25.0,0.0,-100.00,NE,40,7.0,12.0,33,0.00,,,0.00,,2013-03-23 19:52:00,
2013-03-23 14:12:00,29.0,3.0,-100.00,North,355,4.0,8.0,33,0.00,,,0.00,,2013-03-23 20:12:00,
2013-03-23 14:22:00,29.0,3.0,-100.00,North,355,4.0,8.0,33,0.00,,,0.00,,2013-03-23 20:22:00,
2013-03-23 14:32:00,29.0,3.0,-100.00,North,355,4.0,8.0,33,0.00,,,0.00,,2013-03-23 20:32:00,
2013-03-23 14:42:00,29.0,3.0,-100.00,North,355,4.0,8.0,33,0.00,,,0.00,,2013-03-23 20:42:00,
2013-03-23 14:52:00,29.0,3.0,-100.00,North,355,4.0,8.0,33,0.00,,,0.00,,2013-03-23 20:52:00,
2013-03-23 15:12:00,28.0,1.0,-100.00,WSW,257,5.0,8.0,31,0.00,,,0.00,,2013-03-23 21:12:00,
2013-03-23 15:22:00,28.0,1.0,-100.00,WSW,257,5.0,8.0,31,0.00,,,0.00,,2013-03-23 21:22:00,
2013-03-23 15:32:00,28.0,1.0,-100.00,WSW,257,5.0,8.0,31,0.00,,,0.00,,2013-03-23 21:32:00,
2013-03-23 15:43:00,28.0,1.0,-100.00,WSW,257,5.0,8.0,31,0.00,,,0.00,,2013-03-23 21:43:00,
2013-03-23 15:53:00,28.0,1.0,-100.00,WSW,257,5.0,8.0,31,0.00,,,0.00,,2013-03-23 21:53:00,
2013-03-23 16:12:00,30.0,3.0,-100.00,WSW,255,10.0,17.0,31,0.00,,,0.00,,2013-03-23 22:12:00,
2013-03-23 16:23:00,30.0,3.0,-100.00,WSW,255,10.0,17.0,31,0.00,,,0.00,,2013-03-23 22:23:00,
2013-03-23 16:32:00,30.0,3.0,-100.00,WSW,255,10.0,17.0,31,0.00,,,0.00,,2013-03-23 22:32:00,
2013-03-23 16:42:00,30.0,3.0,-100.00,WSW,255,10.0,17.0,31,0.00,,,0.00,,2013-03-23 22:42:00,
2013-03-23 16:52:00,30.0,3.0,-100.00,WSW,255,10.0,17.0,31,0.00,,,0.00,,2013-03-23 22:52:00,
2013-03-23 17:12:00,31.0,1.0,-100.00,West,280,12.0,20.0,27,0.00,,,0.00,,2013-03-23 23:12:00,
2013-03-23 17:22:00,31.0,1.0,-100.00,West,280,12.0,20.0,27,0.00,,,0.00,,2013-03-23 23:22:00,
2013-03-23 17:32:00,31.0,1.0,-100.00,West,280,12.0,20.0,27,0.00,,,0.00,,2013-03-23 23:32:00,
2013-03-23 17:42:00,31.0,1.0,-100.00,West,280,12.0,20.0,27,0.00,,,0.00,,2013-03-23 23:42:00,
2013-03-23 17:51:00,31.0,1.0,-100.00,West,280,12.0,20.0,27,0.00,,,0.00,,2013-03-23 23:51:00,
2013-03-23 18:22:00,30.0,-1.0,-100.00,WSW,256,8.0,15.0,26,-99.99,,,0.00,,2013-03-24 00:22:00,
2013-03-23 18:32:00,30.0,-1.0,-100.00,WSW,256,8.0,15.0,26,-99.99,,,0.00,,2013-03-24 00:32:00,
2013-03-23 19:12:00,28.0,-3.0,-100.00,WSW,249,7.0,13.0,25,-99.99,,,0.00,,2013-03-24 01:12:00,
2013-03-23 19:22:00,28.0,-3.0,-100.00,WSW,249,7.0,13.0,25,-99.99,,,0.00,,2013-03-24 01:22:00,
2013-03-23 19:32:00,28.0,-3.0,-100.00,WSW,249,7.0,13.0,25,-99.99,,,0.00,,2013-03-24 01:32:00,
2013-03-23 20:22:00,20.0,-1.0,-100.00,West,271,5.0,9.0,39,-99.99,,,0.00,,2013-03-24 02:22:00,
2013-03-23 20:32:00,20.0,-1.0,-100.00,West,271,5.0,9.0,39,-99.99,,,0.00,,2013-03-24 02:32:00,
2013-03-23 21:12:00,14.0,1.0,-100.00,NNW,336,1.0,4.0,57,0.00,,,0.00,,2013-03-24 03:12:00,
2013-03-23 21:22:00,14.0,1.0,-100.00,NNW,336,1.0,4.0,57,0.00,,,0.00,,2013-03-24 03:22:00,
2013-03-23 21:33:00,14.0,1.0,-100.00,NNW,336,1.0,4.0,57,0.00,,,0.00,,2013-03-24 03:33:00,
2013-03-23 21:42:00,14.0,1.0,-100.00,NNW,336,1.0,4.0,57,0.00,,,0.00,,2013-03-24 03:42:00,
2013-03-23 21:52:00,14.0,1.0,-100.00,NNW,336,1.0,4.0,57,0.00,,,0.00,,2013-03-24 03:52:00,
2013-03-23 22:12:00,7.0,1.0,-100.00,SSE,163,1.0,1.0,75,0.00,,,0.00,,2013-03-24 04:12:00,
2013-03-23 22:22:00,7.0,1.0,-100.00,SSE,163,1.0,1.0,75,0.00,,,0.00,,2013-03-24 04:22:00,
2013-03-23 22:32:00,7.0,1.0,-100.00,SSE,163,1.0,1.0,75,0.00,,,0.00,,2013-03-24 04:32:00,
2013-03-23 22:42:00,7.0,1.0,-100.00,SSE,163,1.0,1.0,75,0.00,,,0.00,,2013-03-24 04:42:00,
2013-03-23 22:52:00,7.0,1.0,-100.00,SSE,163,1.0,1.0,75,0.00,,,0.00,,2013-03-24 04:52:00,
2013-03-23 23:12:00,5.0,0.0,-100.00,SSE,166,1.0,1.0,82,0.00,,,0.00,,2013-03-24 05:12:00,
2013-03-23 23:22:00,5.0,0.0,-100.00,SSE,166,1.0,1.0,82,0.00,,,0.00,,2013-03-24 05:22:00,
2013-03-23 23:32:00,5.0,0.0,-100.00,SSE,166,1.0,1.0,82,0.00,,,0.00,,2013-03-24 05:32:00,
2013-03-23 23:42:00,5.0,0.0,-100.00,SSE,166,1.0,1.0,82,0.00,,,0.00,,2013-03-24 05:42:00,
2013-03-23 23:51:00,5.0,0.0,-100.00,SSE,166,1.0,1.0,82,0.00,,,0.00,,2013-03-24 05:51:00,